Location: Laband
(50.3440°N, 18.6237°E)
Time: 16:06:00
(UTC+00:00)

Daily predictions for brighter satellites

Satellite Brightness Start Highest point End
(mag) Time Altitude Azimuth Time Altitude Azimuth Time Altitude Azimuth
Cosmos 2034 Rocket 4.3 15:41:41 10° NNW 15:48:00 76° W 15:54:12 10° S
NOAA 12 4.1 15:43:43 10° SSE 15:48:54 70° ENE 15:54:08 10° N
Landsat 5 3.5 15:45:50 10° NNE 15:49:45 51° E 15:53:32 10° S
Cosmos 2279 Rocket 4.4 15:47:14 10° N 15:53:09 41° ENE 15:59:00 10° SE
Cosmos 2263 Rocket 2.6 15:51:05 10° S 15:56:28 45° ESE 16:01:51 10° NE
USA 234 3.7 15:51:09 10° ENE 15:57:25 50° N 16:03:41 10° WNW
CORIOLIS 4.1 15:53:03 10° SSE 15:58:26 71° ENE 16:03:48 10° NNW
NOAA 11 4.2 15:54:25 10° SSE 15:59:52 66° ENE 16:05:20 10° N
COSMOS 2455 4.2 15:57:29 10° SSE 16:01:47 21° ESE 16:06:06 10° ENE
SL-16 R/B 4.4 15:57:16 10° NW 16:02:12 31° WSW 16:07:07 10° SSW
CZ-4C R/B 2.6 16:00:46 10° NNE 16:03:56 77° ESE 16:07:05 10° S
Cosmos 1953 3.9 16:00:30 10° NNW 16:04:14 40° W 16:07:58 10° SSW
SMAP 3.1 16:00:56 10° SSE 16:05:36 89° WSW 16:10:18 10° NNW
Cosmos 1634 Rocket 4.0 15:59:23 10° N 16:05:39 73° ENE 16:11:55 10° SSE
ATLAS 3B R/B 3.2 15:58:49 10° NW 16:05:42 68° SW 16:12:51 10° SSE
COSMO-SKYMED 1 3.8 16:02:42 10° NE 16:06:12 23° E 16:09:41 10° SE
Cosmos 1455 3.9 16:04:32 10° NE 16:06:25 13° ENE 16:08:17 10° E
Cosmos 1536 Rocket 3.6 16:02:21 10° S 16:06:44 90° ENE 16:11:12 10° N
Cosmos 1538 Rocket 4.5 16:03:52 10° NNW 16:08:41 36° NE 16:13:27 10° ESE
Cosmos 1300 2.8 16:06:37 10° N 16:10:23 54° ENE 16:14:08 10° SSE
Cosmos 1939 Rocket 3.2 16:08:03 10° SE 16:12:00 46° ENE 16:15:57 10° N
Okean-O 3.7 16:10:26 10° ESE 16:13:56 23° ENE 16:17:28 10° N
TIMED 4.5 16:09:49 10° NNW 16:14:14 82° ENE 16:18:36 10° SSE
Cosmos 1943 3.3 16:08:45 10° NNW 16:14:29 87° WSW 16:20:08 10° SSE
Meteor 1-24 Rocket 3.9 16:10:38 10° SSE 16:15:44 46° E 16:20:47 10° NNE
Cosmos 783 Rocket 4.5 16:11:14 10° NNW 16:16:30 84° ENE 16:21:44 10° SSE
ARGOS 4.3 16:12:41 10° ESE 16:16:39 21° ENE 16:20:37 10° N
MOS 1 Rocket 4.2 16:13:56 10° NE 16:17:23 23° E 16:20:47 10° SE
Okean O Rocket 1.7 16:14:08 10° SSE 16:18:35 87° WSW 16:23:04 10° NNW
Feng Yun 1-1 Rocket 4.3 16:14:47 10° SE 16:20:03 55° ENE 16:25:28 10° N
Cosmos 1354 Rocket 4.1 16:15:47 10° S 16:21:03 68° ESE 16:26:22 10° NNE
Cosmos 1025 Rocket 4.3 16:17:42 10° SSW 16:21:50 44° WNW 16:26:02 10° N
AQUARIUS 4.5 16:17:38 10° S 16:22:06 72° WSW 16:26:38 10° NNW
CZ-4 R/B 2.3 16:18:45 10° ESE 16:22:13 27° ENE 16:25:38 10° N
Cosmos 1315 Rocket 2.7 16:20:04 10° N 16:24:03 81° ENE 16:28:03 10° SSE
Cosmos 968 Rocket 4.0 16:19:49 10° SW 16:24:50 59° WNW 16:29:56 10° NNE
Cosmos 2082 Rocket 4.1 16:23:43 10° N 16:25:53 12° NNE 16:27:57 10° NE
Cosmos 1833 Rocket 4.3 16:23:35 10° N 16:26:49 15° NNE 16:28:49 13° NE
H-2A R/B 3.7 16:25:19 10° S 16:29:10 45° W 16:33:11 10° NNW
ERS-2 3.4 16:29:00 16° ENE 16:30:40 22° E 16:33:32 10° SSE
USA-17 4.3 16:28:03 10° SW 16:31:39 87° NW 16:33:56 17° NE
NOSS 3-1 (C) 4.4 16:30:01 10° NW 16:36:31 41° NNE 16:42:42 15° E
Cosmos 2227 4.2 16:31:11 10° SSW 16:36:49 84° ESE 16:42:33 10° NNE
NOSS 7 (H) 4.2 16:34:26 10° SW 16:37:40 70° NW 16:39:36 19° NE
Cosmos 1606 Rocket 3.5 16:34:54 10° N 16:39:18 89° E 16:43:42 10° S
H-2A R/B 2.4 16:36:33 10° N 16:41:02 72° WNW 16:45:24 10° SSW
IRS-1C Rocket 4.1 16:36:39 10° SSE 16:41:49 61° ENE 16:47:01 10° N
Cosmos 2227 Rocket 4.0 16:37:25 10° W 16:42:01 24° NW 16:46:37 10° NNE
YAOGAN 1 3.0 16:38:23 10° SE 16:42:22 37° ENE 16:46:23 10° N
Cosmos 1892 Rocket 3.8 16:38:46 10° SSE 16:42:55 46° E 16:47:05 10° NNE
CZ-4C R/B 2.8 16:37:55 10° WSW 16:43:01 52° NW 16:48:40 12° NE
Cosmos 2180 Rocket 4.5 16:40:29 10° N 16:46:54 74° ENE 16:53:18 10° SSE
Cosmos 2344 4.4 16:41:32 10° NW 16:49:43 49° NNE 16:58:20 17° E
Cosmos 1844 Rocket 3.5 16:46:44 10° SSE 16:51:31 29° ESE 16:53:43 22° ENE
Lacrosse 5 1.8 16:47:37 10° WNW 16:52:42 70° NNE 16:56:14 20° ESE
USA 229 DEB 4.4 16:46:15 10° NW 16:52:50 39° NNE 16:57:09 21° E
USA 229 4.4 16:46:21 10° NW 16:52:55 39° NNE 16:57:12 21° E
SKYMED 2 3.5 16:50:10 10° NNE 16:54:30 65° ESE 16:58:49 10° S
Nadezhda 4 Rocket 4.2 16:49:16 10° SSE 16:55:10 46° E 17:01:02 10° NNE
Cosmos 2228 3.7 16:51:29 10° NNW 16:55:40 56° W 16:59:51 10° S
ISS -1.5 16:56:00 10° SSE 16:57:34 13° SE 16:57:34 13° SE
NOSS 3-4 (A) 4.4 16:52:08 10° W 16:57:48 41° NNW 17:03:00 14° NE
NOSS 3-4 (C) 4.4 16:52:13 10° W 16:57:55 42° NNW 17:03:06 14° NE
CZ-2C R/B 3.1 16:54:41 10° SSE 16:59:59 85° ENE 17:05:36 10° NNW
USA 281 4.5 17:00:34 18° NE 17:01:51 19° NNE 17:06:13 10° N
Helios 1A Rocket 3.2 16:58:03 10° SE 17:02:01 46° ENE 17:06:00 10° N
USA 267 4.5 17:01:09 19° ESE 17:02:53 21° SE 17:07:38 10° S
SJ 16-02 2.2 16:59:20 10° SSE 17:03:09 29° E 17:03:17 29° E
Cosmos 1626 4.1 17:02:41 10° SW 17:05:57 29° WNW 17:09:15 10° N
Cosmos 2297 Rocket 4.4 17:03:29 10° WNW 17:07:06 17° NNW 17:10:43 10° N
CZ-2D R/B 3.6 17:03:35 10° S 17:07:27 69° W 17:11:18 10° NNW
NOSS 3-1 (A) 4.4 17:01:54 10° NW 17:08:25 41° NNE 17:12:14 26° ENE
Cosmos 2058 Rocket 3.0 17:03:55 10° N 17:08:26 88° E 17:12:56 10° S
H-2A R/B 1.9 17:04:04 10° SSE 17:08:58 63° ENE 17:14:02 10° N
RESURS DK-1 3.7 17:06:16 10° WSW 17:10:06 35° NW 17:13:23 13° NNE
Cosmos 923 Rocket 4.1 17:05:20 10° NNW 17:10:35 52° ENE 17:14:47 16° SE
Meteor 2-1 Rocket 4.1 17:05:16 10° N 17:10:51 64° ENE 17:16:20 10° SSE
Meteor 2-10 Rocket 3.7 17:09:46 10° NNW 17:15:23 81° W 17:20:43 10° S
ATLAS 2AS CENTAUR R/B 3.7 17:07:47 10° WSW 17:15:28 49° NNW 17:21:25 17° NE
CSL-04 Rocket 3.7 17:10:38 10° SE 17:15:52 53° ENE 17:21:12 10° N
Cosmos 1680 Rocket 3.7 17:13:17 10° NNW 17:18:22 47° ENE 17:20:15 33° ESE
CREW DRAGON DEMO-1 DEB 2.7 17:15:45 10° WNW 17:18:28 75° WNW 17:18:28 75° WNW
Okean 1-7 Rocket 3.5 17:15:47 10° S 17:20:19 75° E 17:24:24 13° NNE
Meteor 2-13 Rocket 4.4 17:14:48 10° S 17:20:49 65° E 17:26:55 10° NNE
CZ-4B R/B 2.3 17:18:38 12° N 17:21:39 48° WNW 17:24:52 10° SSW
ATLAS 5 CENTAUR R/B 2.1 17:18:13 10° WSW 17:22:15 53° NW 17:24:28 27° NNE
SAR-Lupe-4 3.4 17:22:24 63° E 17:22:32 64° ESE 17:26:05 10° S
Cosmos 1818 4.0 17:18:37 10° S 17:23:42 42° ESE 17:24:39 38° E
Cosmos 158 Rocket 3.9 17:19:01 10° NNW 17:24:20 71° ENE 17:29:27 11° SSE
Cosmos 2026 Rocket 4.2 17:26:51 10° SSE 17:32:30 42° E 17:33:52 37° ENE
SL-08 RB Rocket 3.9 17:33:54 49° NE 17:33:54 49° NE 17:37:48 10° N
SAR-Lupe-1 3.9 17:33:44 83° SSE 17:33:44 83° SSE 17:37:12 10° SSW
Cosmos 1626 Rocket 3.7 17:32:12 10° S 17:35:54 53° SE 17:35:54 53° SE
PSLV R/B 4.0 17:37:51 32° N 17:39:46 83° WNW 17:43:59 10° SSW
USA 234 3.3 17:37:29 39° E 17:39:58 64° NNE 17:46:27 10° WNW
Aureole 3 3.2 17:36:38 10° NNW 17:40:24 69° W 17:40:38 66° SW
Cosmos 2263 Rocket 3.4 17:35:13 10° WSW 17:40:30 39° NW 17:45:02 14° NNE
Cosmos 1455 2.5 17:38:41 10° NNW 17:42:27 66° W 17:46:15 10° S
COSMO-SKYMED 1 3.7 17:38:25 10° N 17:42:34 44° WNW 17:46:41 10° SW
COSMOS 2406 3.8 17:38:20 10° NNW 17:43:20 38° NE 17:43:20 38° NE
COSMOS 2455 2.8 17:40:57 10° SW 17:47:00 86° NW 17:49:35 37° NNE
Iridium 4 Rocket 3.5 17:43:16 10° N 17:49:04 71° E 17:54:27 10° S
Okean-O 3.5 17:45:52 10° S 17:50:10 49° W 17:54:29 10° NNW
Cosmos 2112 Rocket 3.8 17:50:17 10° NNW 17:55:34 76° ENE 17:55:56 72° ESE
MOS 1 Rocket 4.2 17:51:46 10° N 17:55:53 43° WNW 17:59:56 10° SW
ARGOS 3.2 17:51:01 10° S 17:56:22 76° WSW 18:01:47 10° NNW
CZ-4 R/B 3.0 17:53:20 10° SSW 17:57:08 35° W 18:00:53 10° NNW
Cosmos 2195 Rocket 4.4 17:51:31 10° S 17:57:48 73° E 18:04:09 10° NNE
CSL-04 Debris 4.5 17:58:12 10° S 18:03:34 65° WSW 18:08:56 10° NNW
CZ-2C R/B 3.1 18:04:57 49° SSE 18:04:57 49° SSE 18:09:11 10° S
ERS-2 3.7 18:03:35 31° NW 18:04:17 34° WNW 18:07:35 10° SW
Meteor 2-8 Rocket 4.3 17:59:06 10° N 18:05:13 90° WNW 18:11:20 10° S
Cosmos 1627 Rocket 4.3 17:59:38 10° S 18:05:47 74° E 18:12:02 10° NNE
Meteor 2-15 4.3 18:00:09 10° N 18:06:18 68° ENE 18:06:28 68° E
Cosmos 1844 3.5 18:04:03 10° SSW 18:09:43 84° ESE 18:09:55 82° ENE
Cosmos 2082 Rocket 3.6 18:06:45 10° NNW 18:09:49 26° N 18:09:49 26° N
Cosmos 1833 Rocket 3.5 18:06:42 10° NNW 18:10:32 38° N 18:10:32 38° N
Cosmos 1428 Rocket 4.3 18:07:16 10° S 18:13:32 78° E 18:15:25 48° NNE
Cosmos 1092 Rocket 4.1 18:15:33 10° SSW 18:21:45 73° W 18:27:56 10° N
NOSS 3-1 (C) 4.0 18:20:49 10° NW 18:28:11 85° SW 18:30:09 57° SSE
CZ-4C R/B 3.9 18:28:06 10° WNW 18:33:00 27° N 18:33:52 26° N
Cosmos 1844 Rocket 3.1 18:29:31 10° SW 18:35:06 57° NW 18:35:26 56° NW
Lacrosse 5 3.2 18:30:53 10° WNW 18:35:26 34° SW 18:35:29 34° SW
SJ 16-02 3.1 18:37:33 10° SW 18:40:20 30° W 18:40:20 30° W
USA 229 DEB 3.8 18:37:19 10° NW 18:44:36 88° SW 18:44:37 88° SW
USA 229 3.7 18:37:25 10° NW 18:44:41 88° SW 18:44:41 88° SW
USA 281 4.0 18:47:26 40° N 18:47:26 40° N 18:51:37 10° NNW
USA 267 3.7 18:48:30 48° SSW 18:48:30 48° SSW 18:53:15 10° SW
H-2A R/B 4.4 18:45:12 10° SW 18:48:53 21° W 18:52:39 10° NW
NOSS 3-1 (A) 4.0 18:52:45 10° NW 18:59:43 81° WNW 18:59:43 81° WNW
Cosmos 2344 4.4 18:55:55 10° NW 19:05:07 75° SW 19:08:26 53° SSE
ATLAS 5 CENTAUR R/B 4.2 19:04:33 10° WNW 19:06:00 16° NW 19:06:00 16° NW
ATLAS 2AS CENTAUR R/B 4.1 19:01:28 10° WNW 19:08:15 30° N 19:08:51 30° N
USA 234 4.0 19:24:50 47° W 19:24:50 47° W 19:29:33 10° WNW
